GOES 13 [B]

Last updated on Nov. 14, 2019, 4:21 a.m. UTC

1 29155U 06018A   19317.58286481 -.00000155  00000-0  00000+0 0  9991
2 29155   0.1475  89.4965 0009628 163.7042 168.6794  1.00002353 49378
UTC
Height (km)
Latitude
Longitude
Inclination
Orbital Period
UTC large
Height (km)
Speed (km/s)
/
Latitude / Longitude
Inclination (degrees)
Orbital Period (minutes)
Azimuth
Elevation
Range (km)
Doppler Factor
iOS Compass Heading
iOS Angle

Next 30 passes for location: Hong Kong

Rise time Rise Azimuth (degrees) Set time Set Azimuth (degrees) Duration Max altitude (degrees)

No matching passes for this satellites